AO-07 1 07530U 74089B 23180.49141456 -.00000025 00000-0 13405-3 0 9995 2 07530 101.9469 167.2512 0012560 41.5310 89.5677 12.53665117224950 UO-11 1 14781U 84021B 23180.18695763 .00001504 00000-0 18252-3 0 9996 2 14781 97.6576 156.6527 0008802 152.4912 207.6770 14.84948727116929 AO-16 1 20439U 90005D 23180.87911515 .00000187 00000-0 85248-4 0 9990 2 20439 98.8830 171.4349 0011087 160.8289 265.0894 14.33117348746978 LO-19 1 20442U 90005G 23179.75944554 .00000205 00000-0 91330-4 0 9998 2 20442 98.8440 156.5221 0012409 140.4604 219.7487 14.33270705747068 HUBBLE 1 20580U 90037B 23180.12857819 .00003160 00000-0 16234-3 0 9998 2 20580 28.4679 188.5430 0002753 145.1078 260.1817 15.13365683623530 MET-2/21 1 22782U 93055A 23180.77007549 .00000069 00000-0 49063-4 0 9997 2 22782 82.5493 74.7795 0022670 12.1546 46.9690 13.83888476506460 AO-27 1 22825U 93061C 23180.10028119 .00000128 00000-0 67044-4 0 9990 2 22825 98.8399 223.1822 0009091 39.7095 320.4751 14.30315022552262 IO-26 1 22826U 93061D 23179.68108035 .00000149 00000-0 74546-4 0 9996 2 22826 98.8345 222.6192 0009403 27.2787 332.8887 14.30676715552452 FO-29 1 24278U 96046B 23180.39066187 -.00000006 00000-0 29620-4 0 9992 2 24278 98.5287 157.2814 0350770 25.4128 336.3810 13.53148296326834 NOAA-15 1 25338U 98030A 23180.85387902 .00000248 00000-0 12146-3 0 9998 2 25338 98.6046 209.6935 0009116 277.5717 82.4428 14.26343156307062 GO-32 1 25397U 98043D 23180.86901240 .00000086 00000-0 57250-4 0 9991 2 25397 98.8693 138.4345 0002426 94.1222 266.0234 14.23883444297353 ISS 1 25544U 98067A 23180.77861337 .00013967 00000-0 24752-3 0 9995 2 25544 51.6422 266.1105 0004651 89.4369 58.0332 15.50537939403744 NO-44 1 26931U 01043C 23180.15279426 .00000211 00000-0 11173-3 0 9999 2 26931 67.0496 165.9290 0008103 270.5343 89.4830 14.30933979135451 SO-50 1 27607U 02058C 23179.60547903 .00001159 00000-0 17663-3 0 9995 2 27607 64.5533 229.9227 0067984 222.4355 137.1481 14.77357829104126 CO-55 1 27844U 03031E 23180.55636152 .00000368 00000-0 18317-3 0 9999 2 27844 98.6770 187.6312 0011112 90.1289 270.1162 14.22801183 37523 CO-57 1 27848U 03031J 23180.00893770 .00000332 00000-0 16902-3 0 9993 2 27848 98.6806 187.5031 0010942 104.9071 255.3319 14.22308942 37239 RS-22 1 27939U 03042A 23180.81525933 .00001257 00000-0 22562-3 0 9994 2 27939 98.2447 327.8712 0013766 96.7178 39.5476 14.68437493 56393 NOAA-18 1 28654U 05018A 23180.81258260 .00000200 00000-0 13122-3 0 9999 2 28654 98.9093 255.1417 0013836 348.7109 11.3750 14.12961201933350 CO-58 1 28895U 05043F 23178.65304608 .00001878 00000-0 35316-3 0 9992 2 28895 98.1535 310.6338 0017039 43.4505 316.8038 14.65714411942570 CO-65 1 32785U 08021C 23180.80250679 .00003313 00000-0 32851-3 0 9999 2 32785 97.7060 146.4872 0013850 65.6504 294.6160 14.92396088822775 AAUSAT2 1 32788U 08021F 23179.92626994 .00008200 00000-0 59475-3 0 9991 2 32788 97.5604 159.0847 0006017 331.5627 28.5270 15.04163126824979 DO-64 1 32789U 08021G 23180.01217568 .00054639 00000-0 14408-2 0 9990 2 32789 97.3014 201.4281 0008238 97.8255 262.3926 15.38277648829303 CO-66 1 32791U 08021J 23179.90440273 .00005005 00000-0 44067-3 0 9998 2 32791 97.6550 150.8947 0012323 20.3536 339.8174 14.96867330823498 RS-30 1 32953U 08025A 23180.75963901 .00000020 00000-0 72339-4 0 9991 2 32953 82.5037 309.2743 0020281 155.1222 205.0840 12.43125965685217 PRISM 1 33493U 09002B 23180.00976043 .00008870 00000-0 59880-3 0 9992 2 33493 98.2440 195.3570 0015778 13.3231 346.8408 15.06770613785539 NOAA-19 1 33591U 09005A 23180.71700437 .00000199 00000-0 13207-3 0 9993 2 33591 99.0985 226.8437 0013493 203.6328 156.4225 14.12778217741714 SRMSAT 1 37841U 11058D 23180.18285068 .00000451 00000-0 10246-3 0 9996 2 37841 19.9709 137.4941 0011955 162.9858 313.9500 14.10907986604724 HRBE 1 37855U 11061F 23180.78612667 .00032889 00000-0 10022-2 0 9991 2 37855 101.7051 149.5755 0116295 2.1920 357.9790 15.27454040638952 RS-40 1 38735U 12041C 23180.87530920 .00000029 00000-0 13772-3 0 9996 2 38735 82.4765 30.1787 0016445 269.7165 90.2030 12.42594648495380 ZACUBE-1 1 39417U 13066B 23180.15794579 .00002716 00000-0 31613-3 0 9994 2 39417 97.6854 141.4055 0053064 247.4672 112.0922 14.85088441518975 Delfi-N3xt 1 39428U 13066N 23179.79371500 .00003408 00000-0 49177-3 0 9992 2 39428 97.8329 104.2180 0111226 151.2857 209.4537 14.72706298514022 GOMX-1 1 39430U 13066Q 23180.78145668 .00001678 00000-0 29832-3 0 9993 2 39430 97.7790 71.1884 0143950 293.8773 64.7402 14.61908553511372 LO-74 1 39440U 13066AA 23180.81622314 .00003443 00000-0 44577-3 0 9991 2 39440 97.7721 129.1554 0074850 347.5672 12.3691 14.79543333517221 AO-73 1 39444U 13066AE 23179.83783953 .00003547 00000-0 39452-3 0 9993 2 39444 97.6712 143.6525 0051470 233.2170 126.4317 14.86806062517962 SPROUT 1 39770U 14029E 23180.81336949 .00017996 00000-0 13463-2 0 9990 2 39770 97.9893 308.4305 0005259 255.3942 104.6699 15.02803437494057 DTUSAT-2 1 40030U 14033W 23180.07603248 .00003090 00000-0 30122-3 0 9995 2 40030 97.9672 120.7665 0009120 249.4527 110.5713 14.93199328490281 EO-80 1 40032U 14033Y 23180.31980819 .00004391 00000-0 42552-3 0 9991 2 40032 97.9675 121.0310 0008932 248.6835 111.3431 14.93206781490301 HODOYOSHI-1 1 40299U 14070B 23180.76340702 .00009769 00000-0 29887-3 0 9997 2 40299 97.1935 243.1017 0009462 224.7981 135.2499 15.33997493480730 FIREBIRD FU3 1 40377U 15003B 23180.12773382 .00243574 00000-0 12285-2 0 9992 2 40377 99.0714 142.8896 0038711 156.6632 203.6398 15.79852136466532 FIREBIRD FU4 1 40378U 15003C 23179.88117416 .00236206 00000-0 12101-2 0 9995 2 40378 99.0734 142.8878 0039239 157.0595 203.2431 15.79499842466506 GRIFEX 1 40379U 15003D 23180.76349215 .00029299 00000-0 61759-3 0 9995 2 40379 99.0776 120.5627 0078239 226.3008 133.1734 15.41922350465320 XW-2C 1 40906U 15049H 23180.80690438 .00010954 00000-0 41784-3 0 9996 2 40906 97.4926 187.9860 0013642 115.4549 244.8103 15.26766284430323 XW-2D 1 40907U 15049J 23180.80940389 .00013579 00000-0 48658-3 0 9993 2 40907 97.4906 188.5557 0012810 109.7389 250.5233 15.28784193430415 LILACSAT-2 1 40908U 15049K 23180.79896645 .00004900 00000-0 23085-3 0 9992 2 40908 97.5240 183.8195 0015236 140.9132 219.3206 15.19882667429711 XW-2E 1 40909U 15049L 23180.86710869 .00030229 00000-0 77504-3 0 9992 2 40909 97.4513 194.9863 0010450 84.7604 275.4833 15.39254969431094 XW-2F 1 40910U 15049M 23180.80506306 .00029659 00000-0 77700-3 0 9990 2 40910 97.4607 194.1644 0011316 86.5777 273.6762 15.38586721430826 XW-2B 1 40911U 15049N 23180.80727974 .00013295 00000-0 47985-3 0 9998 2 40911 97.4885 188.9827 0012773 111.0480 249.2126 15.28553521430297 DCBB 1 40912U 15049P 23180.83993621 .00041946 00000-0 88541-3 0 9993 2 40912 97.4153 198.8784 0009030 53.6405 306.5675 15.45045093431564 IO-86 1 40931U 15052B 23179.97361089 .00001200 00000-0 76590-4 0 9999 2 40931 6.0010 2.3670 0012434 102.5464 257.6054 14.77255329419097 ATHENOXAT-1 1 41168U 15077C 23180.10523120 .00190258 00000-0 18136-2 0 9994 2 41168 14.9850 127.3663 0007051 242.0904 117.8710 15.64740353418186 ChubuSat-2 1 41338U 16012B 23180.28652585 .00003523 00000-0 24180-3 0 9995 2 41338 31.0015 140.4483 0012409 297.6824 62.2553 15.04092894404204 ChubuSat-3 1 41339U 16012C 23180.28246376 .00003255 00000-0 22384-3 0 9999 2 41339 31.0079 137.6104 0012321 304.9170 55.0309 15.03940413404197 Horyu-4 1 41340U 16012D 23180.17092653 .00006833 00000-0 42604-3 0 9998 2 41340 31.0036 106.2358 0011439 359.8443 0.2189 15.08080378404532 e-st@r-II 1 41459U 16025D 23180.76922571 .00028245 00000-0 79437-3 0 9994 2 41459 98.1854 23.3516 0105576 55.9973 305.1241 15.30961003394822 AAUSAT4 1 41460U 16025E 23180.58797120 .00131398 00000-0 14795-2 0 9995 2 41460 98.1576 36.4050 0050418 8.8975 351.3161 15.60536765395704 LO-87 1 41557U 16033B 23180.78266515 .00073662 00000-0 85662-3 0 9993 2 41557 97.3887 289.1899 0005583 100.5242 259.6645 15.61470900395598 NuSat2 1 41558U 16033C 23180.79759095 .00093906 00000-0 92416-3 0 9993 2 41558 97.4165 297.4424 0004485 91.8021 268.3752 15.65680795395946 Lapan A3 1 41603U 16040E 23180.80939485 .00002341 00000-0 10369-3 0 9997 2 41603 97.1650 205.7899 0010790 271.8983 88.1018 15.22535530389411 Pratham 1 41783U 16059A 23180.05219693 .00000857 00000-0 17096-3 0 9999 2 41783 97.8675 210.6376 0034316 64.3335 296.1406 14.63987164360717 TY-1 1 41844U 16066D 23180.80861416 .00060407 00000-0 88397-3 0 9993 2 41844 97.3658 200.4788 0006561 31.4120 328.7525 15.55382429369643 CAS-2T 1 41847U 16066G 23179.77669785 .00002152 00000-0 32645-3 0 9993 2 41847 98.5036 248.2743 0360104 162.5045 198.8935 14.39741916348478 EO-88 1 42017U 17008BX 23180.77034028 .00437563 73812-4 14684-2 0 9993 2 42017 97.2039 252.8010 0007271 240.9130 119.1415 15.90042697355468 CAS-4B 1 42759U 17034B 23180.76040317 .00007679 00000-0 38514-3 0 9997 2 42759 43.0163 45.7803 0010905 190.5543 169.5077 15.17656162333548 CAS-4A 1 42761U 17034D 23180.77645635 .00007356 00000-0 36930-3 0 9997 2 42761 43.0159 44.2197 0011754 192.2503 167.8061 15.17660588333556 NIUSat 1 42766U 17036B 23180.08885051 .00024166 00000-0 60400-3 0 9993 2 42766 97.1557 211.1309 0011156 68.8677 291.3761 15.40066372334445 Aalto 1 1 42775U 17036L 23180.05958824 .00016611 00000-0 47487-3 0 9995 2 42775 97.1513 209.7620 0011256 70.2885 289.9572 15.35988596334342 URSA MAIOR 1 42776U 17036M 23180.82301053 .00021259 00000-0 56833-3 0 9996 2 42776 97.1521 211.8796 0010632 65.5481 294.6872 15.38031624334537 Max Valier Sat 1 42778U 17036P 23180.06390662 .00022341 00000-0 56972-3 0 9995 2 42778 97.1539 214.6303 0009571 69.9821 290.2455 15.39485137334553 Pegasus 1 42784U 17036V 23180.10940621 .00039417 00000-0 74336-3 0 9999 2 42784 97.1458 217.3848 0007333 68.0624 292.1406 15.48354644334824 SUCHAI 1 1 42788U 17036Z 23180.88081615 .00085490 00000-0 10600-2 0 9992 2 42788 97.1424 222.1190 0004674 70.9287 289.2477 15.59751147335273 SKCUBE 1 42789U 17036AA 23172.81992585 .00056631 00000-0 91963-3 0 9991 2 42789 97.1418 212.3911 0007496 86.3828 273.8283 15.52514419333832 VENTA 1 1 42791U 17036AC 23172.62814748 .00040201 00000-0 76910-3 0 9998 2 42791 97.1470 211.1791 0007660 86.9699 273.2429 15.47934209333722 Robusta 1B 1 42792U 17036AD 23180.09963703 .00067667 00000-0 92055-3 0 9998 2 42792 97.1411 220.9507 0004465 70.9603 289.2137 15.57345054335066 D-SAT 1 42794U 17036AF 23180.77954461 .00003164 00000-0 25325-3 0 9994 2 42794 97.4635 172.2539 0114560 259.2126 99.6183 14.95834814327842 TechnoSat 1 42829U 17042E 23180.78386249 .00001870 00000-0 18144-3 0 9997 2 42829 97.3890 17.4744 0013385 176.4784 183.6533 14.93697284324378 AO-91 1 43017U 17073E 23180.23782323 .00008139 00000-0 56408-3 0 9994 2 43017 97.6303 64.0986 0233566 29.9151 331.5179 14.86327774302979 PICSAT 1 43132U 18004X 23180.75009747 .00083910 00000-0 10013-2 0 9997 2 43132 97.3273 264.3767 0002704 100.5709 259.5853 15.60772950304507 AO-92 1 43137U 18004AC 23180.16906582 .00032805 00000-0 64961-3 0 9999 2 43137 97.3281 259.4968 0006348 103.1158 257.0801 15.46988394304156 TianYi 2 1 43155U 18008A 23180.84259004 .00017247 00000-0 66965-3 0 9997 2 43155 97.2978 233.0611 0011372 259.4561 100.5397 15.26088497300585 Zhou Enlai 1 43156U 18008B 23180.78198547 .00018791 00000-0 71593-3 0 9993 2 43156 97.3027 233.1356 0009031 259.3364 100.6858 15.26722585300506 TianYi 6 1 43158U 18008D 23180.68008199 .00013938 00000-0 58739-3 0 9992 2 43158 97.3033 229.9160 0008927 265.1140 94.9079 15.23405898300323 S-Net D 1 43186U 18014G 23180.71979145 .00002780 00000-0 22444-3 0 9999 2 43186 97.6274 84.2901 0017103 123.0065 237.2805 15.00547488295434 S-Net B 1 43187U 18014H 23180.72096983 .00002870 00000-0 23158-3 0 9994 2 43187 97.6268 84.2184 0017394 120.6642 239.6299 15.00540218295434 S-Net A 1 43188U 18014J 23180.72106714 .00002865 00000-0 23117-3 0 9998 2 43188 97.6274 84.3071 0017411 120.8662 239.4277 15.00542860295431 S-Net C 1 43189U 18014K 23180.72340479 .00002932 00000-0 23651-3 0 9995 2 43189 97.6268 84.1964 0017916 116.0391 244.2680 15.00531790293980 Shaonian Xing 1 43199U 18015H 23180.29402145 .00262317 00000-0 11803-2 0 9998 2 43199 97.5399 341.1822 0003441 186.4142 173.7083 15.83388534301730 CubeBel-1 1 43666U 18083E 23180.75654204 .00033480 00000-0 86666-3 0 9995 2 43666 97.3793 212.4353 0010814 84.8267 275.4212 15.38935800259139 Changshagaoxin 1 43669U 18083H 23180.75500934 .00025412 00000-0 74198-3 0 9991 2 43669 97.3783 206.9951 0009005 86.4608 273.7665 15.35266160258876 Ten-Koh 1 43677U 18084G 23179.67537392 .00003106 00000-0 30307-3 0 9998 2 43677 98.0147 319.7751 0016473 109.5124 250.7875 14.93104701253772 PO-101 1 43678U 18084H 23180.78475986 .00001190 00000-0 11871-3 0 9999 2 43678 98.0245 325.0087 0010743 116.7978 243.4341 14.93475927254145 QO-100 1 43700U 18090A 23180.05952203 .00000165 00000-0 00000+0 0 9993 2 43700 0.0151 329.9024 0002005 162.9349 191.3167 1.00274340 17044 Reaktor Hello World 1 43743U 18096AA 23180.77128559 .00068149 00000-0 83078-3 0 9990 2 43743 97.3169 268.1560 0009523 138.7916 221.4062 15.60221013256135 MinXSS-2 1 43758U 18099A 23179.71915087 .00006218 00000-0 47968-3 0 9998 2 43758 97.6052 243.5848 0018842 85.8397 274.4981 15.01795873249472 AO-95 1 43770U 18099N 23180.70073482 .00004506 00000-0 36644-3 0 9994 2 43770 97.5689 241.8974 0014172 99.7339 260.5486 14.99975318249481 RANGE-B 1 43772U 18099Q 23180.49087326 .00005385 00000-0 41766-3 0 9991 2 43772 97.5750 244.5049 0008519 65.4926 294.7186 15.01758459249514 RANGE-A 1 43773U 18099R 23180.75539424 .00002996 00000-0 25425-3 0 9991 2 43773 97.5623 239.9975 0013209 77.8811 282.3892 14.98587795249449 MOVE-II 1 43780U 18099Y 23180.14707424 .00008187 00000-0 59600-3 0 9999 2 43780 97.5694 243.9207 0010354 112.6025 247.6298 15.03993846249530 SNUSat 2 1 43782U 18099AA 23180.13282877 .00004761 00000-0 38765-3 0 9993 2 43782 97.5770 241.8612 0014892 71.6618 288.6224 14.99896190249427 SnugLite 1 43784U 18099AC 23180.67843153 .00003775 00000-0 30411-3 0 9998 2 43784 97.5697 242.0765 0009900 86.1242 274.1114 15.00482679249544 ITASat 1 1 43786U 18099AE 23180.70569501 .00003856 00000-0 31711-3 0 9990 2 43786 97.5731 242.9355 0014562 87.9468 272.3423 14.99629994249529 EAGLET 1 1 43790U 18099AJ 23180.41685677 .00002233 00000-0 18779-3 0 9993 2 43790 97.5753 243.1191 0013618 82.4014 277.8756 14.99198869249214 ESEO 1 43792U 18099AL 23180.11993696 .00002616 00000-0 22770-3 0 9996 2 43792 97.5690 241.2646 0014692 86.9016 273.3887 14.97700216249178 CSIM 1 43793U 18099AM 23179.70682603 .00008812 00000-0 63211-3 0 9992 2 43793 97.5771 244.8269 0017987 90.3634 269.9653 15.04440710249311 Astrocast 0.1 1 43798U 18099AS 23180.19308914 .00008627 00000-0 64639-3 0 9991 2 43798 97.5852 244.6332 0012554 68.0024 292.2534 15.02870998249573 JO-97 1 43803U 18099AX 23179.91548835 .00005390 00000-0 42559-3 0 9995 2 43803 97.5717 242.1827 0015632 57.5398 302.7335 15.01009420249455 Suomi 100 1 43804U 18099AY 23180.11482432 .00005128 00000-0 40823-3 0 9991 2 43804 97.5681 242.1696 0020542 71.4552 288.8902 15.00649348249488 Al Farabi 2 1 43805U 18099AZ 23179.71037938 .00006840 00000-0 51930-3 0 9996 2 43805 97.5625 242.8280 0013811 69.8512 290.4197 15.02430603249480 CHOMPTT 1 43855U 18104G 23179.92801764 .00021183 00000-0 51213-3 0 9998 2 43855 85.0291 158.1662 0008209 270.2844 89.7468 15.40982100252389 ISAT 1 43879U 18111D 23180.01657271 .00006485 00000-0 49062-3 0 9993 2 43879 97.6439 84.3045 0015682 121.3184 238.9579 15.02570773244096 UWE-4 1 43880U 18111E 23179.68026994 .00005868 00000-0 44625-3 0 9992 2 43880 97.6355 84.6790 0019651 132.0997 228.1902 15.02354433244090 Sparrow 1 43881U 18111F 23180.68657108 .00006304 00000-0 47283-3 0 9991 2 43881 97.6494 86.3265 0011833 158.5304 201.6420 15.02948745244265 Lume 1 1 43908U 18111AJ 23180.17703251 .00030652 00000-0 59761-3 0 9993 2 43908 97.1386 63.2670 0013992 147.1203 213.0921 15.47364814251241 FO-99 1 43937U 19003F 23180.65963101 .00057314 00000-0 86590-3 0 9995 2 43937 97.0840 207.7250 0011393 214.2937 145.7583 15.54469306247980 AstroCast 0.2 1 44083U 19018F 23180.74485231 .00048292 00000-0 81069-3 0 9998 2 44083 97.2651 240.6467 0006035 183.1661 176.9555 15.51632204236367 AISTechSat 3 1 44103U 19018AB 23180.74599599 .00024571 00000-0 58065-3 0 9998 2 44103 97.2526 239.1197 0008427 215.5023 144.5665 15.41792873236443 AISat 1 1 44104U 19018AC 23180.16837338 .00019778 00000-0 37713-3 0 9991 2 44104 97.3739 271.7332 0039734 212.6717 147.2075 15.47315317237577 Prox-1 1 44339U 19036A 23180.74519816 .00005316 00000-0 10499-2 0 9997 2 44339 24.0020 324.6952 0010422 42.7894 317.3409 14.59601414213522 Move-IIb 1 44398U 19038N 23180.49834821 .00050684 00000-0 11847-2 0 9998 2 44398 97.6581 163.9083 0011105 230.6717 129.3545 15.41943220220565 SONATE 1 44400U 19038Q 23180.85899669 .00008696 00000-0 38699-3 0 9994 2 44400 97.6833 158.7674 0018358 266.8515 93.0619 15.21579662220169 BeeSat 9 1 44412U 19038AC 23180.76563104 .00021843 00000-0 73787-3 0 9995 2 44412 97.6733 161.8222 0012765 256.0641 103.9179 15.30606361220082 JAISAT-1 1 44419U 19038F 23179.66704896 .00020891 00000-0 70051-3 0 9997 2 44419 97.6728 161.7743 0011977 255.9954 103.9955 15.30865252220290 Taurus 1 1 44530U 19059C 23180.77125142 .00003668 00000-0 95324-3 0 9992 2 44530 98.5561 288.7668 0013548 60.0367 300.2169 14.50219406200465 Duchifat 3 1 44854U 19089C 23180.73479061 .00007308 00000-0 49024-3 0 9993 2 44854 36.9632 16.2876 0008003 50.3985 309.7465 15.06463411194725 OPS-SAT 1 44878U 19092F 23180.77487448 .00019784 00000-0 57975-3 0 9990 2 44878 97.4745 9.6910 0010021 93.0265 267.2125 15.35194445195723 TO-108 1 44881U 19093C 23180.85031817 .00000941 00000-0 12330-3 0 9990 2 44881 97.8615 259.0861 0015594 41.4386 318.8007 14.82570075190673 FloripaSat 1 1 44885U 19093G 23180.73910909 .00002904 00000-0 33859-3 0 9999 2 44885 97.8683 261.7617 0014351 44.1970 316.0389 14.85922691190817 RS-44 1 44909U 19096E 23179.40279192 .00000040 00000-0 11210-3 0 9999 2 44909 82.5221 340.4914 0217879 160.4983 200.4619 12.79721825163644 BY70-2 1 45857U 20042B 23180.62791514 .00018035 00000-0 18269-2 0 9991 2 45857 97.9256 260.5713 0007063 325.9068 34.1695 14.90967139161399 UPMSat 2 1 46276U 20061E 23179.77695815 .00007556 00000-0 31780-3 0 9999 2 46276 97.3462 247.1168 0000422 71.7866 288.3417 15.23677313156058 AmicalSat 1 46287U 20061R 23180.71454768 .00011108 00000-0 51237-3 0 9994 2 46287 97.4001 246.9888 0003155 73.9472 286.2111 15.20406074155619 SALSAT 1 46495U 20068K 23172.83279536 .00004036 00000-0 26739-3 0 9995 2 46495 97.7704 120.8847 0017405 103.1112 257.2059 15.07774126149778 CAPE 3 1 47309U 21002A 23180.11069854 .00029711 00000-0 69428-3 0 9998 2 47309 60.6778 13.9933 0010324 211.2908 148.7575 15.42004671136120 AO-109 1 47311U 21002C 23180.77975086 .00023884 00000-0 60540-3 0 9997 2 47311 60.6815 10.1092 0009502 197.3113 162.7660 15.39651279136239 ExoCube 2 1 47319U 21002L 23180.78605659 .00022798 00000-0 59370-3 0 9994 2 47319 60.6797 12.2976 0009957 203.4124 156.6518 15.38842902136154 UVSQ-SAT 1 47438U 21006AB 23180.69835945 .00014285 00000-0 57716-3 0 9997 2 47438 97.3840 237.6268 0010263 47.1983 313.0116 15.24811953134559 YUSAT 1 1 47439U 21006AC 23180.70310505 .00018593 00000-0 69348-3 0 9990 2 47439 97.3848 238.4371 0009377 45.8029 314.3979 15.27428351134608 SOMP 2b 1 47445U 21006AJ 23180.10217574 .00013265 00000-0 54869-3 0 9996 2 47445 97.3805 236.2724 0010332 53.7074 306.5117 15.24037727134435 IDEASSat 1 47458U 21006AX 23180.08830829 .00011727 00000-0 49463-3 0 9996 2 47458 97.3902 237.0429 0009722 53.9859 306.2278 15.23414111134410 CubeSX-Sirius-HSE 1 47951U 21022V 23180.76976907 .00007777 00000-0 43439-3 0 9992 2 47951 97.4969 77.9213 0016693 293.8115 66.1366 15.13676929124931 CubeSX-HSE 1 47952U 21022W 23180.80856406 .00008070 00000-0 44978-3 0 9995 2 47952 97.4965 78.0076 0016740 292.7734 67.1729 15.13739974124940 KSU-Cubesat 1 47954U 21022Y 23180.72117114 .00009380 00000-0 50938-3 0 9992 2 47954 97.4974 78.3146 0015972 291.7597 68.1935 15.14629463124677 GRBAlpha 1 47959U 21022AD 23180.79453054 .00008770 00000-0 48729-3 0 9997 2 47959 97.4971 78.0785 0016571 293.2558 66.6928 15.13825719123760 Orbicraft-Zorkiy 1 47960U 21022AE 23180.74607146 .00008841 00000-0 48165-3 0 9990 2 47960 97.4998 78.4755 0016177 292.4092 67.5426 15.14531780124462 STECCO 1 47962U 21022AG 23180.76757533 .00016685 00000-0 76088-3 0 9990 2 47962 97.4968 80.9824 0010216 278.1644 81.8432 15.20664807123951 DO-111 1 47963U 21022AH 23180.19828889 .00413529 00000-0 31428-2 0 9997 2 47963 97.4902 89.6218 0009399 164.2433 195.9124 15.71042560124479 MO-110 1 47964U 21022AJ 23180.15260926 .00017027 00000-0 75772-3 0 9990 2 47964 97.4982 80.9857 0012207 274.7269 85.2572 15.21480756123898 FEES 1 48082U 21022AL 23179.72624388 .00032900 00000-0 11940-2 0 9992 2 48082 97.4970 81.9251 0007357 262.9287 97.1116 15.28228298123620 TUBIN 1 48900U 21059X 23180.66705275 .00007693 00000-0 36378-3 0 9995 2 48900 97.6009 314.3475 0008161 232.5341 127.5152 15.19646278111079 IT-SPINS 1 49017U 21013G 23179.81414950 .00030321 00000-0 67674-3 0 9994 2 49017 51.5928 21.6785 0005263 12.7938 347.3180 15.43272133111503 LEDSAT 1 49069U 21073D 23180.74192253 .00008204 00000-0 44672-3 0 9998 2 49069 97.4826 251.4038 0025139 78.7868 281.6188 15.14407367102806 CUTE 1 49263U 21088D 23180.75647855 .00007113 00000-0 45401-3 0 9993 2 49263 97.5435 246.3390 0017219 214.3925 145.6190 15.08860038 96181 TeikyoSat 4 1 49396U 21102B 23179.72117184 .00001183 00000-0 93764-4 0 9996 2 49396 97.5121 231.3593 0016525 48.1161 312.1470 15.02294245 89508 Z-Sat 1 49399U 21102E 23180.71862953 .00002301 00000-0 16582-3 0 9996 2 49399 97.4832 233.4308 0022573 30.8887 329.3662 15.04936747 89773 KOSEN 1 1 49402U 21102H 23180.37956667 .00003846 00000-0 26168-3 0 9995 2 49402 97.4761 233.6329 0021071 20.6081 339.5992 15.06721276 89791 HO-113 1 50466U 21131B 23180.75577754 .00000540 00000-0 18944-3 0 9998 2 50466 98.5520 262.2618 0005514 101.8240 258.3566 14.38941927 79166 Tevel-3 1 50988U 22002E 23180.70897828 .00017575 00000-0 69282-3 0 9994 2 50988 97.4331 247.5913 0008223 180.0490 180.0748 15.25609282 80676 Tevel-8 1 50989U 22002F 23180.72827490 .00018473 00000-0 72947-3 0 9995 2 50989 97.4347 247.6709 0008264 179.3342 180.7909 15.25542261 80679 Tevel-5 1 50998U 22002Q 23180.71235431 .00018757 00000-0 72034-3 0 9994 2 50998 97.4327 247.9930 0009476 176.1881 183.9432 15.26456576 80709 Tevel-6 1 50999U 22002R 23180.71087552 .00018526 00000-0 71152-3 0 9998 2 50999 97.4325 247.9859 0009484 176.0026 184.1290 15.26456975 80705 Tevel-1 1 51013U 22002AF 23180.71916081 .00018038 00000-0 71196-3 0 9990 2 51013 97.4326 247.5426 0008154 179.9508 180.1732 15.25562310 80673 Grizu-263a 1 51025U 22002AT 23180.19009447 .00085621 00000-0 16384-2 0 9993 2 51025 97.4466 253.0788 0008887 180.9267 179.1968 15.47718060 80916 NO-116 1 51031U 22002AZ 23180.64696633 .00033677 00000-0 10347-2 0 9996 2 51031 97.4448 250.6458 0009991 177.7928 182.3360 15.33587405 80818 IRIS-A 1 51044U 22002BN 23180.12453237 .00008880 00000-0 41932-3 0 9997 2 51044 97.4341 245.3986 0008216 187.5688 172.5424 15.19634460 80474 Tevel-7 1 51062U 22002CG 23180.72911674 .00018582 00000-0 73332-3 0 9996 2 51062 97.4343 247.6445 0008239 178.9670 181.1586 15.25562209 80676 Tevel-4 1 51063U 22002CH 23180.73563160 .00018201 00000-0 71957-3 0 9990 2 51063 97.4342 247.6337 0008240 179.1786 180.9467 15.25506097 80677 Tevel-2 1 51069U 22002CP 23180.71077762 .00017961 00000-0 70783-3 0 9990 2 51069 97.4328 247.5639 0008198 179.8707 180.2535 15.25614840 80678 DELFI-PQ 1 51074U 22002CU 23180.11344846 .00037819 00000-0 10397-2 0 9998 2 51074 97.4585 252.5749 0009930 202.6259 157.4549 15.37059544 80835 SO-115 1 51080U 22002DA 23180.16269118 .00021057 00000-0 74039-3 0 9999 2 51080 97.4605 250.9273 0010384 209.2198 150.8462 15.29333398 80721 SO-114 1 51081U 22002DB 23179.16787558 .00021454 00000-0 75110-3 0 9993 2 51081 97.4595 249.9033 0010474 212.8598 147.1992 15.29469813 80578 OreSat0 1 52017U 22026K 23179.59041221 .00016530 00000-0 65338-3 0 9996 2 52017 97.5082 182.0164 0023294 49.1319 311.1932 15.25311587 71283 Planetum 1 1 52738U 22057G 23180.32412198 .00011971 00000-0 54806-3 0 9990 2 52738 97.5392 296.2821 0005827 310.1029 49.9695 15.20640584 60508 Foresail-1 1 52766U 22057AL 23180.70461919 .00007569 00000-0 35736-3 0 9997 2 52766 97.5511 297.5591 0010701 287.3250 72.6813 15.19679605 60585 SNUGLITE 2 1 52899U 22065F 23179.39533460 .00001275 00000-0 27906-3 0 9995 2 52899 98.0706 323.9261 0008147 172.6089 187.5232 14.59339679 52498 CTIM 1 52950U 22074G 23180.68026312 .00046455 00000-0 97814-3 0 9994 2 52950 44.9981 289.3989 0015079 307.8712 52.0812 15.44493831 55534 IO-117 1 53106U 22080B 23178.63588110 -.00000003 00000-0 00000+0 0 9993 2 53106 70.1635 316.0877 0008542 183.5982 176.4617 6.42556943 22422 AstroBioCubeSat 1 53107U 22080C 23025.30817895 -.00000003 00000-0 00000-0 0 9995 2 53107 70.1710 9.4734 0013545 210.3158 149.6718 6.42110537 12478 SelfieSat 1 53951U 22057BC 23180.27709802 .00015602 00000-0 67717-3 0 9993 2 53951 97.5437 296.9113 0007725 298.8837 61.1624 15.22395247 60520 FO-118 1 54684U 22167C 23180.76455132 .00009641 00000-0 52889-3 0 9997 2 54684 97.5634 318.2584 0012179 292.5201 67.4741 15.14310993 30586 KILICSAT 1 56181U 23054D 23180.73261328 .00011325 00000-0 48452-3 0 9999 2 56181 97.4039 75.4356 0009239 4.4108 355.7209 15.22944106 12081 SSS-2B 1 56184U 23054G 23180.72580036 .00011806 00000-0 50205-3 0 9994 2 56184 97.4102 75.5066 0010538 3.2154 356.9149 15.23127563 12083 CIRBE 1 56188U 23054L 23179.65640637 .00014062 00000-0 58869-3 0 9993 2 56188 97.4051 74.4451 0009317 1.9459 358.1812 15.23628531 11926 INSPIRE-Sat 7 1 56211U 23054AK 23180.69792425 .00015014 00000-0 59635-3 0 9999 2 56211 97.4081 75.6744 0013021 336.5214 23.5428 15.25343268 12095 RoseyCubesat 1 1 56212U 23054AL 23180.68885139 .00015784 00000-0 62173-3 0 9999 2 56212 97.4086 75.6923 0013332 335.7790 24.2820 15.25607515 12097 ARKSAT 1 1 56311U 98067VC 23180.43464862 .00057308 00000-0 73137-3 0 9994 2 56311 51.6378 265.6304 0002401 94.1225 266.0042 15.58711257 10276 AuroraSat 1 56312U 98067VD 23180.61051399 .00074064 00000-0 89908-3 0 9993 2 56312 51.6370 264.5519 0002405 62.0573 298.0663 15.59923740 10333 Ex-Alta 2 1 56313U 98067VE 23179.79358653 .00059237 00000-0 75686-3 0 9997 2 56313 51.6365 268.8450 0002420 91.6299 268.4971 15.58666704 10199 LightCube 1 56314U 98067VF 23180.42380545 .00069019 00000-0 84869-3 0 9997 2 56314 51.6367 265.5529 0004087 60.6263 299.5137 15.59609686 10322 NEUDOSE 1 56315U 98067VG 23180.73661180 .00043699 00000-0 60471-3 0 9998 2 56315 51.6370 264.6423 0004709 98.8081 261.3445 15.56655947 10318 YukonSat 1 56316U 98067VH 23180.39552709 .00051919 00000-0 68918-3 0 9995 2 56316 51.6372 266.1159 0004197 84.1057 276.0413 15.57700183 10284 SNIPE 4 1 56744U 23072B 23180.08852117 .00004930 00000-0 32859-3 0 9992 2 56744 97.5507 6.7656 0008796 172.0576 188.0793 15.07506770 5222 SNIPE 2 1 56745U 23072C 23180.81554536 .00005392 00000-0 35758-3 0 9992 2 56745 97.5514 7.4900 0009086 173.5559 186.5788 15.07647051 5338 /EX
